Location: New Plymouth
(39.0670°S, 174.0830°E)
Time: 13:43:07
(UTC+13:00)

NOAA 19 - Pass Details

Date: 21 August 2019
Orbit: 840 x 862 km, 99.2° (Epoch: 18 October)

Event Time Altitude Azimuth Distance (km) Brightness Sun altitude
Rises 19:00:18 0° 180° (S) 3,454 8.3 -14.1°
Reaches altitude 10° 19:03:05 10° 192° (SSW) 2,515 7.8 -14.6°
Maximum altitude 19:07:27 24° 244° (WSW) 1,714 7.5 -15.4°
Drops below altitude 10° 19:11:48 10° 296° (WNW) 2,502 8.7 -16.3°
Sets 19:14:35 0° 309° (NW) 3,433 9.3 -16.8°
